Lumberton, NC

1:07 AM EDT on August 24, 2017 (GMT -0400)
Lumberton Municipal

Weather History for KLBT - February, 2015

Change the Weather History Date:

Sunday, February 22, 2015

  Actual Average Record
Temperature  
Mean Temperature 56 °F 48 °F  
Max Temperature 64 °F 60 °F 77 °F (2003)
Min Temperature 47 °F 37 °F 25 °F (1999)
Degree Days  
Heating Degree Days 9 17  
Month to date heating degree days 523 416  
Since 1 July heating degree days 2233 2135  
Cooling Degree Days 0 0  
Month to date cooling degree days 0 0  
Year to date cooling degree days 0 1  
Growing Degree Days 4 (Base 50)    
Moisture  
Dew Point 53 °F    
Average Humidity 89    
Maximum Humidity 100    
Minimum Humidity 78    
Precipitation  
Precipitation 0.48 in 0.12 in 0.61 in (2001)
Month to date precipitation 2.61 2.24  
Year to date precipitation 7.30 5.21  
Sea Level Pressure  
Sea Level Pressure 30.17 in    
Wind  
Wind Speed 2 mph (SSE)    
Max Wind Speed 10 mph    
Max Gust Speed 14 mph    
Visibility 4 miles    
Events Fog , Rain    
T = Trace of Precipitation, MM = Missing Value Source: NWS Daily Summary

Daily Weather History Graph

Daily Weather History Graph

Search for Another Location

Airport or City:

Trip Planner

Search our weather history database for the weather conditions in past years. The results will help you decide how hot, cold, wet, or windy it might be!

Date:

Astronomy

Feb. 22, 2015 Rise Set
Actual Time 6:54 AM EST 6:05 PM EST
Civil Twilight 6:28 AM EST 6:31 PM EST
Nautical Twilight 5:59 AM EST 7:00 PM EST
Astronomical Twilight 5:30 AM EST 7:29 PM EST
Moon 9:15 AM EST (2/22) 10:34 PM EST (2/22)
Length of Visible Light 12h 02m
Length of Day
11h 11m
Waxing Crescent, 19% of the Moon is Illuminated
Feb 22
Waxing Crescent
Feb 25
First Quarter
Mar 5
Full
Mar 13
Last Quarter
Mar 20
New

Hourly Weather History & Observations

Time (EST) Temp. Dew Point Humidity Pressure Visibility Wind Dir Wind Speed Gust Speed Precip Events Conditions
12:54 AM 50.0 °F 48.0 °F 93% 30.19 in 10.0 mi SSE 3.5 mph - N/A   Clear
1:54 AM 48.9 °F 46.9 °F 93% 30.18 in 10.0 mi SSE 4.6 mph - N/A   Clear
2:54 AM 50.0 °F 48.0 °F 93% 30.17 in 10.0 mi Calm Calm - N/A   Clear
3:54 AM 50.0 °F 48.0 °F 93% 30.16 in 10.0 mi Calm Calm - N/A   Clear
4:54 AM 51.1 °F 48.0 °F 89% 30.16 in 10.0 mi SSW 3.5 mph - N/A   Clear
5:54 AM 50.0 °F 48.0 °F 93% 30.17 in 10.0 mi SSW 3.5 mph - N/A   Scattered Clouds
6:54 AM 46.9 °F 45.0 °F 93% 30.19 in 7.0 mi Calm Calm - N/A   Scattered Clouds
7:54 AM 48.0 °F 46.0 °F 93% 30.19 in 3.0 mi Calm Calm - N/A   Overcast
8:07 AM 48.9 °F 46.9 °F 93% 30.20 in 2.5 mi Calm Calm - 0.01 in Rain Light Rain
8:54 AM 50.0 °F 48.0 °F 93% 30.21 in 3.0 mi Calm Calm - 0.02 in Rain Light Rain
9:54 AM 53.1 °F 50.0 °F 89% 30.19 in 6.0 mi SSE 5.8 mph - 0.02 in   Overcast
10:54 AM 54.0 °F 52.0 °F 93% 30.22 in 5.0 mi Calm Calm - 0.00 in   Overcast
11:54 AM 57.0 °F 53.1 °F 87% 30.20 in 8.0 mi South 4.6 mph - 0.01 in   Overcast
12:54 PM 57.9 °F 54.0 °F 87% 30.17 in 6.0 mi SSW 6.9 mph - 0.01 in   Overcast
1:54 PM 61.0 °F 55.0 °F 81% 30.16 in 10.0 mi SW 9.2 mph - N/A   Overcast
2:06 PM 61.0 °F 55.0 °F 81% 30.16 in 10.0 mi WSW 10.4 mph - N/A   Overcast
2:54 PM 62.1 °F 55.0 °F 78% 30.15 in 10.0 mi WNW 8.1 mph - N/A   Overcast
3:54 PM 62.1 °F 55.0 °F 78% 30.14 in 10.0 mi Calm Calm - N/A   Overcast
4:38 PM 62.1 °F 54.0 °F 75% 30.14 in 10.0 mi Calm Calm - N/A   Overcast
4:54 PM 62.1 °F 55.0 °F 78% 30.14 in 9.0 mi Calm Calm - 0.00 in Rain Light Rain
5:17 PM 60.1 °F 55.0 °F 83% 30.16 in 3.0 mi Calm Calm - 0.01 in Rain Light Rain
5:36 PM 59.0 °F 55.9 °F 90% 30.15 in 2.5 mi Calm Calm - 0.04 in Rain Rain
5:50 PM 57.2 °F 55.4 °F 94% 30.16 in 2.0 mi Calm Calm - 0.07 in Rain Light Rain
5:54 PM 57.9 °F 55.9 °F 93% 30.16 in 2.0 mi ESE 3.5 mph - 0.07 in Rain Light Rain
5:58 PM 57.0 °F 55.9 °F 96% 30.15 in 1.5 mi ESE 4.6 mph - 0.02 in Rain Rain
6:16 PM 57.9 °F 55.9 °F 93% 30.16 in 2.0 mi Calm Calm - 0.06 in Rain Light Rain
6:21 PM 57.0 °F 55.9 °F 96% 30.16 in 1.5 mi Calm Calm - 0.07 in Rain Light Rain
6:27 PM 57.0 °F 55.9 °F 96% 30.16 in 0.8 mi Calm Calm - 0.07 in Rain Light Rain
6:51 PM 57.2 °F 55.4 °F 94% 30.16 in 0.2 mi Calm Calm - 0.07 in Fog Fog
6:54 PM 55.9 °F 55.0 °F 97% 30.17 in 0.2 mi Calm Calm - 0.07 in Fog Fog
7:11 PM 55.0 °F 54.0 °F 96% 30.16 in 0.2 mi SE 5.8 mph - N/A Fog Fog
7:21 PM 55.9 °F 55.0 °F 97% 30.15 in 1.5 mi SE 5.8 mph - N/A   Overcast
7:24 PM 57.0 °F 55.0 °F 93% 30.16 in 3.0 mi SE 4.6 mph - N/A   Overcast
7:42 PM 55.9 °F 55.0 °F 97% 30.16 in 1.8 mi Calm Calm - 0.01 in Rain Light Rain
7:54 PM 55.9 °F 55.0 °F 97% 30.17 in 1.2 mi Calm Calm - 0.02 in Rain Light Rain
8:01 PM 55.9 °F 55.0 °F 97% 30.17 in 1.8 mi South 3.5 mph - 0.00 in Rain Light Rain
8:10 PM 55.9 °F 55.0 °F 97% 30.17 in 1.2 mi South 3.5 mph - 0.00 in Rain Light Rain
8:17 PM 57.0 °F 55.0 °F 93% 30.17 in 1.0 mi Calm Calm - 0.00 in   Overcast
8:42 PM 57.0 °F 55.9 °F 96% 30.18 in 1.2 mi Calm Calm - 0.02 in Rain Light Rain
8:52 PM 57.2 °F 55.4 °F 94% 30.17 in 1.0 mi Calm Calm - 0.02 in   Overcast
8:54 PM 55.9 °F 55.0 °F 97% 30.18 in 0.8 mi Calm Calm - 0.02 in   Overcast
9:13 PM 57.0 °F 55.0 °F 93% 30.18 in 0.5 mi North 3.5 mph - 0.01 in Fog Fog
9:28 PM 55.9 °F 55.0 °F 97% 30.18 in 0.8 mi Calm Calm - 0.01 in   Overcast
9:54 PM 55.9 °F 55.0 °F 97% 30.17 in 0.5 mi NNE 3.5 mph - 0.01 in Fog Fog
10:19 PM 55.9 °F 55.0 °F 97% 30.17 in 1.2 mi ENE 4.6 mph - 0.02 in Rain Light Rain
10:54 PM 57.0 °F 55.0 °F 93% 30.17 in 1.2 mi Calm Calm - 0.08 in Rain Heavy Rain
11:01 PM 55.9 °F 55.0 °F 97% 30.17 in 0.8 mi Calm Calm - 0.04 in Rain Heavy Rain
11:24 PM 55.9 °F 55.0 °F 97% 30.17 in 0.8 mi Calm Calm - 0.11 in Rain Light Rain
11:36 PM 55.9 °F 55.0 °F 97% 30.17 in 0.5 mi Calm Calm - 0.13 in Fog , Rain Rain
11:44 PM 55.9 °F 55.0 °F 97% 30.17 in 0.2 mi Calm Calm - 0.14 in Fog , Rain Light Rain
11:51 PM 55.4 °F 53.6 °F 94% 30.16 in 0.2 mi Calm Calm - 0.14 in Fog , Rain Light Rain
11:54 PM 55.9 °F 54.0 °F 93% 30.16 in 0.2 mi Calm Calm - 0.14 in Fog , Rain Light Rain